Terminal Aerodrome Forecast
Issued by NWS

Current Version | Previous Version | Graphics & Text | Print | Product List | Glossary On
Versions: 1 2 3 4 5 6 7 8 9 10 11 12 13 14 15 16 17 18 19 20 21 22 23
000
FTUS41 KPBZ 160902 AAB
TAFMGW
TAF AMD
KMGW 160902Z 1609/1706 17006KT 3SM -SN OVC025
      TEMPO 1609/1612 1SM -SN OVC015
     FM161200 21005KT 3SM -SN OVC010
     FM161800 24007KT 5SM -SN OVC015
     FM170300 28007KT 6SM -SN OVC025=

USA.gov is the U.S. government's official web portal to all federal, state and local government web resources and services.